Saint Regis, MT

12:28 PM MST on February 26, 2017 (GMT -0700)
Mullan Pass

Weather History for KMLP - October, 2013

Change the Weather History Date:

Thursday, October 31, 2013

  Actual Average (K3TH) Record (K3TH)
Temperature  
Mean Temperature 29 °F -  
Max Temperature 33 °F 46 °F 54 °F (1998)
Min Temperature 26 °F 32 °F 6 °F (2002)
Degree Days  
Heating Degree Days 36    
Moisture  
Dew Point 29 °F    
Average Humidity 95    
Maximum Humidity 100    
Minimum Humidity 74    
Precipitation  
Precipitation 0.17 in - - ()
Sea Level Pressure  
Sea Level Pressure 30.04 in    
Wind  
Wind Speed 6 mph (WNW)    
Max Wind Speed 10 mph    
Max Gust Speed 22 mph    
Visibility 2 miles    
Events Fog , Snow    
Averages and records for this station are not official NWS values.
T = Trace of Precipitation, MM = Missing Value Source: NWS Daily Summary

Daily Weather History Graph

Daily Weather History Graph

Search for Another Location

Airport or City:

Trip Planner

Search our weather history database for the weather conditions in past years. The results will help you decide how hot, cold, wet, or windy it might be!

Date:

Astronomy

Oct. 31, 2013 Rise Set
Actual Time 7:25 AM PDT 5:26 PM PDT
Civil Twilight 6:53 AM PDT 5:58 PM PDT
Nautical Twilight 6:17 AM PDT 6:34 PM PDT
Astronomical Twilight 5:41 AM PDT 7:10 PM PDT
Moon 4:07 AM PDT (10/31) 3:56 PM PDT (10/31)
Length of Visible Light 11h 05m
Length of Day
10h 01m
Waning Crescent, 9% of the Moon is Illuminated
Oct 31
Waning Crescent
Nov 3
New
Nov 9
First Quarter
Nov 17
Full
Nov 25
Last Quarter

Hourly Weather History & Observations

Time (PDT) Temp. Windchill Dew Point Humidity Pressure Visibility Wind Dir Wind Speed Gust Speed Precip Events Conditions
12:08 AM 28.4 °F 20.4 °F 21.2 °F 74% 29.99 in 10.0 mi WSW 8.1 mph - N/A   Overcast
12:53 AM 28.0 °F 20.0 °F 21.0 °F 75% 29.93 in 10.0 mi WSW 8.1 mph - N/A   Overcast
1:53 AM 28.0 °F 21.7 °F 21.9 °F 78% 29.91 in 10.0 mi WSW 5.8 mph - N/A   Overcast
2:53 AM 28.0 °F 21.7 °F 21.9 °F 78% 29.93 in 10.0 mi Variable 5.8 mph - N/A   Overcast
3:42 AM 28.4 °F 20.4 °F 21.2 °F 74% 29.97 in 10.0 mi WSW 8.1 mph - N/A   Overcast
3:53 AM 28.9 °F 21.9 °F 21.9 °F 75% 29.91 in 10.0 mi Variable 6.9 mph 17.3 mph N/A   Overcast
4:13 AM 28.4 °F 23.3 °F 23.0 °F 80% 29.97 in 10.0 mi Variable 4.6 mph - N/A   Overcast
4:53 AM 28.9 °F 20.4 °F 23.0 °F 78% 30.05 in 10.0 mi WSW 9.2 mph - 0.00 in   Overcast
5:20 AM 28.4 °F 21.2 °F 24.8 °F 86% 29.97 in 6.0 mi Variable 6.9 mph - 0.00 in Snow Light Snow
5:34 AM 28.4 °F 22.2 °F 24.8 °F 86% 29.97 in 7.0 mi WSW 5.8 mph - 0.00 in   Overcast
5:45 AM 28.4 °F 22.2 °F 24.8 °F 86% 29.97 in 10.0 mi Variable 5.8 mph 21.9 mph 0.00 in   Overcast
5:53 AM 28.0 °F 21.7 °F 25.0 °F 88% 30.06 in 9.0 mi WSW 5.8 mph - 0.00 in   Overcast
6:04 AM 28.4 °F 22.2 °F 24.8 °F 86% 29.97 in 10.0 mi Variable 5.8 mph - N/A   Overcast
6:43 AM 26.6 °F 21.2 °F 26.6 °F 100% 29.97 in 2.0 mi Variable 4.6 mph - 0.00 in Snow Light Snow
6:46 AM 26.6 °F 21.2 °F 26.6 °F 100% 29.97 in 1.8 mi Variable 4.6 mph - 0.00 in Snow Light Snow
6:53 AM 27.0 °F 19.5 °F 26.1 °F 96% 30.06 in 1.0 mi WSW 6.9 mph - 0.00 in Snow Light Snow
7:07 AM 26.6 °F 20.0 °F 26.6 °F 100% 29.97 in 0.8 mi Variable 5.8 mph 18.4 mph 0.00 in Snow Light Snow
7:53 AM 27.0 °F 20.5 °F 26.1 °F 96% 30.07 in 0.5 mi WNW 5.8 mph - 0.00 in Fog , Snow Light Snow
8:05 AM 26.6 °F 21.2 °F 26.6 °F 100% 29.98 in 0.2 mi Variable 4.6 mph - 0.01 in Fog , Snow Light Snow
8:12 AM 26.6 °F 20.0 °F 26.6 °F 100% 29.98 in 0.5 mi Variable 5.8 mph - 0.02 in Fog , Snow Snow
8:28 AM 26.6 °F 20.0 °F 26.6 °F 100% 29.98 in 0.2 mi Variable 5.8 mph - 0.06 in Fog , Snow Snow
8:53 AM 27.0 °F 18.7 °F 26.1 °F 96% 30.07 in 0.2 mi WSW 8.1 mph - 0.10 in Fog , Snow Snow
9:19 AM 28.4 °F 19.1 °F 26.6 °F 93% 29.98 in 1.0 mi West 10.4 mph 17.3 mph 0.01 in Snow Light Snow
9:26 AM 28.4 °F 21.2 °F 26.6 °F 93% 29.98 in 0.5 mi Variable 6.9 mph 20.7 mph 0.02 in Fog , Snow Light Snow
9:33 AM 28.4 °F 22.2 °F 26.6 °F 93% 29.98 in 0.2 mi Variable 5.8 mph - 0.02 in Fog , Snow Light Snow
9:53 AM 28.0 °F 20.8 °F 27.0 °F 96% 30.07 in 0.2 mi Variable 6.9 mph - 0.03 in Fog , Snow Light Snow
10:53 AM 28.0 °F - 28.0 °F 100% 30.09 in 0.2 mi Calm Calm - 0.03 in Fog Light Freezing Fog
11:53 AM 28.9 °F 25.2 °F 28.0 °F 96% 30.08 in 0.2 mi NW 3.5 mph - 0.01 in Fog , Snow Light Snow
12:53 PM 28.9 °F 25.2 °F 28.9 °F 100% 30.07 in 0.2 mi NW 3.5 mph - 0.00 in Fog Light Freezing Fog
1:53 PM 30.0 °F 23.2 °F 28.9 °F 96% 30.06 in 0.2 mi NW 6.9 mph - N/A Fog Light Freezing Fog
2:53 PM 30.0 °F 25.2 °F 28.9 °F 96% 30.09 in 0.2 mi Variable 4.6 mph - N/A Fog Light Freezing Fog
3:53 PM 30.9 °F 25.2 °F 30.0 °F 96% 29.96 in 0.2 mi Variable 5.8 mph - N/A Fog Light Freezing Fog
4:53 PM 30.9 °F 22.8 °F 30.0 °F 96% 29.97 in 0.2 mi NW 9.2 mph 21.9 mph N/A Fog Light Freezing Fog
5:44 PM 30.2 °F 22.6 °F 30.2 °F 100% 30.04 in 0.2 mi NW 8.1 mph - N/A Fog Light Freezing Fog
5:53 PM 30.9 °F 24.3 °F 30.9 °F 100% 29.98 in 0.5 mi Variable 6.9 mph - N/A Fog Light Freezing Fog
6:15 PM 30.2 °F 22.6 °F 30.2 °F 100% 30.05 in 0.2 mi NW 8.1 mph - N/A Fog Light Freezing Fog
6:26 PM 30.2 °F 23.4 °F 30.2 °F 100% 30.05 in 1.0 mi Variable 6.9 mph - N/A   Overcast
6:33 PM 30.2 °F 23.4 °F 30.2 °F 100% 30.05 in 1.2 mi NW 6.9 mph - N/A   Overcast
6:40 PM 30.2 °F 25.4 °F 30.2 °F 100% 30.05 in 0.2 mi NNW 4.6 mph - N/A Fog Light Freezing Fog
6:53 PM 30.9 °F 24.3 °F 30.9 °F 100% 30.14 in 0.2 mi NW 6.9 mph - N/A Fog Light Freezing Fog
7:10 PM 32.0 °F 24.8 °F 30.2 °F 93% 30.06 in 0.2 mi NW 8.1 mph - N/A Fog Fog
7:25 PM 32.0 °F 25.6 °F 30.2 °F 93% 30.06 in 0.5 mi NW 6.9 mph - N/A Fog Fog
7:44 PM 32.0 °F 26.4 °F 30.2 °F 93% 30.07 in 0.2 mi NNW 5.8 mph - N/A Fog Fog
7:53 PM 32.0 °F 25.6 °F 32.0 °F 100% 30.01 in 0.2 mi NNW 6.9 mph - N/A Fog Fog
8:14 PM 32.0 °F 26.4 °F 32.0 °F 100% 30.07 in 0.5 mi NW 5.8 mph - N/A Fog Fog
8:21 PM 32.0 °F 26.4 °F 32.0 °F 100% 30.07 in 0.2 mi NNW 5.8 mph - N/A Fog Fog
8:49 PM 32.0 °F 25.6 °F 32.0 °F 100% 30.08 in 1.0 mi WNW 6.9 mph - N/A   Overcast
8:53 PM 32.0 °F 28.7 °F 32.0 °F 100% 30.02 in 2.0 mi Variable 3.5 mph - N/A   Overcast
9:02 PM 32.0 °F 27.5 °F 32.0 °F 100% 30.09 in 5.0 mi Variable 4.6 mph - N/A   Overcast
9:10 PM 32.0 °F 27.5 °F 32.0 °F 100% 30.09 in 1.8 mi NW 4.6 mph - N/A   Overcast
9:14 PM 32.0 °F 28.7 °F 32.0 °F 100% 30.09 in 0.8 mi Variable 3.5 mph - N/A   Overcast
9:24 PM 32.0 °F 27.5 °F 32.0 °F 100% 30.09 in 1.5 mi Variable 4.6 mph - N/A   Overcast
9:29 PM 32.0 °F 26.4 °F 32.0 °F 100% 30.09 in 3.0 mi WNW 5.8 mph - N/A   Overcast
9:45 PM 32.0 °F 27.5 °F 32.0 °F 100% 30.10 in 1.5 mi Variable 4.6 mph - N/A   Overcast
9:48 PM 32.0 °F 27.5 °F 32.0 °F 100% 30.10 in 0.8 mi Variable 4.6 mph - N/A   Overcast
9:53 PM 32.0 °F 27.5 °F 32.0 °F 100% 30.04 in 0.5 mi Variable 4.6 mph - N/A Fog Fog
10:07 PM 32.0 °F 27.5 °F 32.0 °F 100% 30.11 in 0.2 mi NW 4.6 mph - N/A Fog Fog
10:16 PM 32.0 °F - 32.0 °F 100% 30.11 in 0.5 mi Calm Calm - N/A Fog Fog
10:36 PM 32.0 °F 27.5 °F 32.0 °F 100% 30.10 in 0.2 mi Variable 4.6 mph - N/A Fog Fog
10:43 PM 32.0 °F 27.5 °F 32.0 °F 100% 30.11 in 0.5 mi NW 4.6 mph - N/A Fog Fog
10:47 PM 32.0 °F 27.5 °F 32.0 °F 100% 30.11 in 1.0 mi NW 4.6 mph - N/A   Overcast
10:53 PM 32.0 °F 28.7 °F 32.0 °F 100% 30.05 in 1.2 mi NW 3.5 mph - N/A   Overcast
11:01 PM 32.0 °F 27.5 °F 32.0 °F 100% 30.11 in 0.8 mi NW 4.6 mph - N/A   Overcast
11:08 PM 32.0 °F 27.5 °F 32.0 °F 100% 30.11 in 1.0 mi NW 4.6 mph - N/A   Overcast
11:17 PM 32.0 °F 25.6 °F 32.0 °F 100% 30.11 in 0.5 mi NW 6.9 mph - N/A Fog Fog
11:23 PM 32.0 °F 27.5 °F 32.0 °F 100% 30.11 in 1.5 mi NW 4.6 mph - N/A   Overcast
11:26 PM 32.0 °F 27.5 °F 32.0 °F 100% 30.11 in 3.0 mi Variable 4.6 mph - N/A   Overcast
11:32 PM 32.0 °F 26.4 °F 32.0 °F 100% 30.11 in 2.5 mi WNW 5.8 mph - N/A   Overcast
11:40 PM 32.0 °F 27.5 °F 32.0 °F 100% 30.11 in 1.2 mi NW 4.6 mph - N/A   Overcast
11:48 PM 32.0 °F 28.7 °F 32.0 °F 100% 30.12 in 0.5 mi Variable 3.5 mph - N/A Fog Fog
11:53 PM 32.0 °F 27.5 °F 32.0 °F 100% 30.05 in 1.0 mi Variable 4.6 mph - N/A   Overcast